Theta_e
321 322 322 320 318 315 313 311 310 311 312 316 320 323 323 323 329 333 334 335 335 335 334 333 333 333 333 333 332 332 331 330 330 328 326 325 325 324 324 323 323 321 315 309 304 301 301 301 301 301 300 300 300 300 300 300 300 300 299 299 300 300 300 300 301 301 300 300 301 300 300 304 305 306 305 306 306 305 304 303 304 306 306 305 304
327 329 330 328 327 324 319 315 313 315 320 325 328 329 330 332 333 334 335 336 335 334 334 333 333 333 333 333 332 332 331 331 330 329 327 327 326 325 323 323 321 313 305 302 301 301 301 301 301 301 300 300 300 300 300 299 300 300 300 299 299 300 300 301 302 301 300 300 300 301 305 307 305 306 307 306 305 304 305 305 307 307 306 306 306
329 331 332 331 331 330 327 322 319 324 328 331 331 331 333 334 335 335 335 335 335 334 334 334 333 333 333 333 332 332 332 331 330 329 328 327 326 324 322 321 315 305 301 301 301 301 301 300 300 300 300 300 300 300 299 299 299 299 299 299 299 300 299 301 303 301 299 300 299 301 306 307 305 308 308 306 306 307 307 308 308 307 307 308 308
330 331 332 332 332 331 331 329 327 329 331 332 332 333 334 334 334 334 335 335 335 334 333 333 333 333 333 333 332 332 332 331 330 329 328 327 325 323 322 317 307 301 301 301 301 301 301 300 300 300 300 299 299 299 299 299 299 299 299 299 299 299 298 300 302 301 299 299 298 300 304 305 307 308 307 307 308 307 307 307 307 307 307 306 306
330 331 332 333 333 332 332 332 332 331 331 332 332 333 334 334 334 334 334 334 334 334 333 333 333 333 333 333 333 333 332 331 330 328 327 326 324 323 320 311 302 301 301 301 301 301 300 300 300 300 299 299 299 299 299 299 299 299 299 298 298 299 298 298 300 300 299 299 298 298 300 302 305 307 307 307 305 304 304 304 304 305 304 305 306
331 332 333 333 333 334 333 333 333 333 332 332 332 333 333 334 334 333 334 334 334 334 334 333 333 333 333 333 333 332 331 330 328 327 326 324 323 321 315 305 300 301 301 300 301 300 299 299 299 299 299 299 299 298 299 299 298 298 298 298 298 298 298 298 298 299 299 299 299 298 298 299 301 305 307 305 302 303 302 301 304 305 304 305 306
332 332 333 333 333 334 334 334 334 334 333 332 333 334 333 334 334 334 334 334 334 334 334 333 333 333 333 332 332 331 330 329 327 326 324 323 322 317 308 301 301 301 301 300 300 300 299 299 298 299 298 298 298 298 298 298 298 298 298 298 298 298 298 298 298 298 299 299 298 299 299 298 299 304 306 303 301 303 303 303 305 305 305 306 307
331 332 332 332 332 332 332 333 335 334 333 334 334 334 334 334 334 334 334 334 334 334 333 333 333 332 332 332 331 330 329 326 325 324 322 322 320 311 302 301 301 300 300 300 300 299 299 299 298 298 298 298 298 298 298 298 298 298 298 298 298 298 298 298 298 298 298 298 299 299 299 299 297 303 307 304 301 303 304 304 305 306 306 307 308
330 331 332 332 332 332 330 332 334 334 334 334 334 334 333 333 333 333 334 334 334 334 333 333 332 332 332 331 330 328 326 324 322 322 321 321 316 306 300 301 300 300 300 299 299 299 299 299 298 298 298 298 297 298 298 297 298 297 298 298 298 298 298 298 298 298 298 298 300 301 299 299 297 302 307 304 303 304 303 303 305 306 307 306 305
329 331 332 332 332 331 331 332 333 334 334 334 334 334 333 332 332 333 334 334 334 333 332 332 332 331 331 329 328 326 323 321 320 320 320 316 309 302 300 301 300 300 299 299 299 299 299 298 298 298 298 298 298 298 298 298 298 297 298 297 298 298 298 298 298 298 299 298 301 303 301 300 297 300 305 303 303 302 301 304 305 306 307 305 303
330 332 332 332 332 331 331 331 332 334 334 334 334 333 333 331 331 333 333 333 333 332 332 332 331 330 329 328 325 323 321 320 319 318 316 310 304 301 301 301 300 300 299 299 298 298 298 298 298 298 298 298 298 298 298 298 298 297 298 298 298 298 298 298 298 299 300 299 303 304 301 300 298 299 304 303 300 299 303 305 304 306 306 303 303
330 332 332 332 331 331 332 331 332 334 334 334 334 333 332 331 331 332 333 333 332 332 332 331 331 329 327 325 323 321 320 318 317 316 312 305 302 302 302 301 300 299 299 298 298 298 298 298 297 297 297 297 297 298 298 298 298 298 298 298 298 298 298 298 298 300 301 300 303 304 301 300 299 298 302 302 298 300 304 304 304 306 303 300 302
330 331 331 332 331 331 331 331 332 333 334 334 334 333 332 331 331 331 332 333 332 331 331 330 330 328 325 322 320 320 318 316 315 313 308 304 303 303 302 300 300 299 298 298 298 298 297 297 297 297 297 297 297 297 298 298 298 298 298 298 298 298 298 298 297 299 300 301 303 303 300 300 300 298 300 299 298 301 302 302 305 303 300 300 300
329 331 331 332 332 331 331 331 332 333 334 334 333 333 332 331 331 331 332 332 332 331 330 330 329 328 325 322 320 318 316 314 313 311 307 305 304 303 302 300 300 300 299 298 298 298 298 297 297 297 297 297 297 298 297 298 298 298 298 298 298 298 298 298 298 298 298 299 302 303 301 301 300 299 299 298 298 301 300 301 303 300 299 300 299
330 331 332 332 332 332 331 331 332 333 333 333 332 332 332 332 330 331 332 332 331 331 330 330 329 327 325 324 321 319 316 313 312 310 308 307 305 304 303 301 300 299 299 298 298 299 298 297 297 297 298 298 298 298 298 298 298 298 298 298 298 298 298 298 298 297 298 299 301 301 301 302 301 299 299 298 298 299 298 299 301 300 299 299 299
331 332 332 333 333 332 332 331 332 332 332 332 331 331 332 332 332 332 333 332 331 330 330 329 329 327 326 324 322 318 316 315 313 311 309 309 307 305 303 301 300 300 299 298 299 299 298 298 298 298 298 299 299 299 299 299 298 298 298 298 298 298 298 298 297 297 297 298 299 299 301 302 300 298 298 299 299 298 297 298 300 300 299 299 299
330 332 332 333 333 332 332 332 331 331 331 331 331 331 331 332 332 332 333 332 332 331 330 329 329 328 327 326 322 318 318 317 314 312 311 310 309 306 303 301 300 300 299 298 299 298 298 298 298 299 299 299 299 299 299 299 299 299 299 299 298 298 298 297 297 297 296 297 298 298 300 301 298 297 299 301 299 298 297 298 299 299 298 299 299
330 332 333 333 333 332 332 332 331 331 331 331 330 331 331 332 332 332 332 332 332 331 330 329 328 328 327 327 325 321 319 318 315 313 312 311 310 307 305 302 300 300 300 298 298 299 298 299 299 299 300 300 300 300 300 300 300 300 299 299 299 298 298 297 297 297 296 296 297 298 299 299 298 297 299 300 298 296 297 298 299 298 298 299 299
331 334 334 333 333 332 332 332 331 330 330 331 330 330 331 332 332 332 332 331 332 332 331 329 328 327 327 327 326 322 321 319 317 316 314 312 311 308 306 303 300 301 300 299 299 300 300 300 300 300 300 300 300 300 300 300 300 300 300 299 299 298 298 298 297 296 296 296 296 297 298 297 297 297 298 297 296 296 297 298 298 298 298 299 299
333 335 334 333 333 332 332 332 331 330 330 331 330 330 331 332 332 332 332 332 332 332 331 329 328 327 327 326 324 322 321 321 320 321 319 315 312 309 307 304 300 301 301 299 300 301 300 301 301 300 300 300 300 300 300 300 300 300 300 299 299 299 298 297 296 296 296 296 296 296 297 296 296 296 296 296 295 296 297 298 298 297 297 298 298
334 335 334 333 333 333 332 332 331 330 331 331 331 330 331 331 331 331 332 332 332 331 331 329 328 327 327 326 324 323 322 322 322 322 322 319 314 310 308 306 302 302 302 300 300 301 301 301 301 301 300 300 300 300 301 301 300 300 300 299 299 298 297 296 296 296 296 296 296 296 296 296 296 295 295 295 295 296 297 297 297 297 297 297 297
334 335 335 334 333 332 332 331 331 331 331 332 331 331 331 331 331 331 331 330 330 329 329 328 327 327 327 326 325 324 323 323 322 322 322 320 316 312 310 308 304 302 302 301 301 301 301 302 302 302 301 300 300 301 301 301 300 300 299 299 298 297 297 296 296 296 296 296 296 296 296 296 295 295 295 295 295 295 296 296 296 296 296 297 297
334 335 335 333 333 332 331 331 331 331 332 332 332 332 332 331 330 329 329 328 328 328 328 327 327 327 327 326 326 325 324 323 322 322 321 320 318 315 313 310 304 303 303 301 301 302 302 302 302 302 301 300 301 301 301 301 300 300 299 299 298 297 296 296 296 295 296 296 296 296 296 295 295 295 295 295 295 295 295 295 295 296 296 296 297
335 335 335 334 333 332 331 331 331 332 332 333 332 332 332 330 329 327 327 327 327 328 327 327 326 326 326 325 325 324 323 322 322 322 321 320 319 317 314 310 304 303 303 301 301 302 302 302 302 301 301 300 301 301 301 301 300 300 299 299 298 296 296 296 296 296 296 296 296 296 295 295 295 295 295 294 294 294 294 294 295 295 296 296 297
335 335 334 333 333 333 331 331 331 332 332 333 332 332 331 329 327 327 327 327 327 327 327 326 326 325 325 325 324 322 321 321 320 320 320 319 319 316 314 310 305 304 303 301 302 302 302 302 301 301 301 300 301 301 301 300 300 299 299 298 297 296 296 295 295 296 296 296 296 296 295 295 295 295 295 294 294 294 293 294 294 295 296 296 297
335 335 334 334 333 333 332 330 331 332 332 332 332 331 329 328 327 326 327 327 326 326 326 325 324 323 323 322 321 320 319 316 313 312 314 316 317 317 315 310 304 304 303 301 301 302 302 301 301 301 301 301 301 301 301 300 300 299 298 297 296 296 296 296 296 296 296 296 296 295 295 295 295 295 295 294 294 294 293 294 294 295 296 296 296
335 335 334 334 333 333 332 330 330 331 332 332 331 330 328 327 326 326 325 325 325 325 325 323 320 318 317 316 316 315 312 308 305 307 309 313 316 316 315 310 305 304 304 302 301 302 301 301 301 301 301 301 301 301 301 301 300 299 298 297 296 296 296 296 296 296 296 296 296 295 295 295 295 295 295 294 294 294 293 293 294 294 296 296 296
335 335 334 334 334 333 332 330 330 331 332 331 330 329 327 326 326 325 324 323 323 323 322 319 316 314 312 311 310 309 306 304 303 304 306 310 313 314 313 311 307 305 305 303 302 301 301 301 301 301 301 301 301 301 302 301 299 298 297 296 296 296 296 296 296 296 296 296 296 296 296 296 295 295 295 294 294 294 293 293 293 294 295 296 296
336 336 335 334 334 333 331 330 330 331 331 331 330 328 327 327 325 323 322 321 321 320 318 315 313 311 310 308 306 305 304 303 302 303 304 306 308 309 309 310 309 307 306 304 302 301 301 301 301 301 301 301 301 302 302 300 298 297 296 296 296 295 296 296 296 296 296 296 296 296 296 295 295 295 294 294 294 293 293 293 293 294 295 296 296
336 335 335 335 333 331 330 330 330 331 331 331 329 328 327 326 325 322 321 319 318 317 315 313 311 308 307 305 304 304 303 302 302 302 303 303 304 304 305 307 308 307 306 306 303 302 302 301 301 302 301 302 302 302 301 299 297 297 296 296 296 295 296 296 296 296 296 296 296 296 296 295 295 295 295 294 294 294 293 293 293 294 295 296 296
336 335 335 334 332 330 329 329 330 331 331 330 329 327 327 326 324 321 320 317 316 314 312 310 308 306 305 304 304 304 302 302 301 301 301 301 301 301 301 304 306 307 306 306 304 303 302 302 302 302 302 302 302 301 299 298 297 296 296 296 295 295 296 296 296 296 296 296 296 296 296 295 295 295 295 295 294 294 294 293 293 293 294 296 296
336 335 335 332 330 329 329 329 330 331 331 330 328 327 327 326 323 321 319 317 314 312 310 308 305 303 303 304 304 303 301 301 301 300 300 300 300 300 299 301 304 306 306 305 305 304 303 303 302 302 303 302 301 299 298 297 296 296 296 296 295 296 296 296 296 296 296 296 296 296 296 296 295 295 295 295 295 295 294 293 293 293 294 295 295
336 336 335 331 329 329 329 330 330 331 330 328 327 326 327 327 324 321 319 316 313 310 307 304 302 301 302 302 302 301 300 300 300 299 299 299 299 299 299 299 301 305 306 306 305 304 304 304 303 303 303 301 299 298 297 296 295 296 296 295 296 296 296 296 296 296 297 296 296 296 296 296 296 295 295 295 295 295 294 293 293 293 294 295 295
336 336 334 332 330 330 330 330 330 330 329 327 327 327 326 327 325 321 318 315 311 308 305 302 301 301 301 301 301 300 300 300 299 299 299 299 299 298 299 298 299 302 305 306 306 305 304 304 304 302 301 299 298 297 296 295 296 296 296 296 296 296 296 296 296 297 297 296 296 296 296 297 296 296 296 295 295 295 295 294 293 293 294 295 295
336 335 334 332 330 330 330 330 330 329 328 327 326 326 326 326 325 321 316 312 309 306 302 301 300 301 300 300 300 300 300 299 299 299 299 299 298 298 298 298 298 300 303 305 305 304 303 303 301 300 299 298 297 296 296 296 296 296 296 296 296 296 296 296 297 297 297 297 296 296 297 297 297 297 296 296 295 295 295 294 294 294 294 295 296
336 335 334 332 331 331 330 330 329 328 328 326 325 325 324 324 324 320 314 310 307 303 301 300 300 300 300 300 300 300 299 299 299 299 298 298 298 298 297 298 298 298 301 302 302 301 300 300 299 298 298 297 296 295 295 296 296 296 296 296 296 296 296 297 297 297 297 297 297 297 297 297 297 297 296 296 296 296 295 295 295 294 294 295 296
336 335 334 332 331 331 330 330 329 328 327 325 325 325 324 324 323 319 312 307 304 301 300 300 300 300 299 299 299 299 299 299 299 298 298 298 298 298 297 297 297 297 298 299 299 298 298 298 298 298 297 297 296 295 296 297 297 297 297 297 297 297 297 297 298 297 297 297 297 297 297 297 297 296 296 296 296 296 296 296 296 295 295 295 296
335 334 333 332 331 331 331 330 329 327 326 325 325 325 323 322 322 317 310 305 302 300 299 299 299 299 299 299 299 299 299 298 298 298 298 298 297 297 297 297 297 298 298 298 298 298 298 298 297 297 297 296 296 296 297 297 297 297 297 297 297 297 297 298 298 297 297 297 297 297 297 297 297 297 296 297 297 297 297 297 297 296 296 296 296
335 334 332 331 331 331 331 330 328 327 326 325 325 324 321 320 319 313 306 302 300 299 299 299 299 299 299 298 298 298 298 298 298 297 297 297 297 297 297 297 297 298 298 298 298 298 298 297 297 297 297 296 296 296 297 297 298 297 297 297 297 297 297 298 298 297 297 297 297 298 298 298 298 297 297 297 298 298 298 298 298 298 297 296 296
334 333 330 330 331 331 330 329 327 326 325 325 325 322 319 317 315 308 303 301 299 299 299 299 298 298 298 298 298 298 298 297 297 298 298 297 297 297 298 297 297 298 298 298 298 298 298 297 297 297 296 296 296 297 297 297 298 297 297 297 297 298 298 298 298 297 297 297 298 298 298 298 298 298 297 298 299 298 298 299 299 298 297 297 297
334 331 329 329 329 330 330 329 327 326 326 325 325 321 317 314 310 305 301 300 299 299 299 298 298 298 298 298 298 298 297 297 298 297 297 297 298 299 299 297 297 297 297 298 298 298 297 297 297 297 296 296 296 297 297 298 298 298 298 298 298 298 298 298 298 298 297 298 298 299 299 299 299 298 298 298 299 298 298 299 299 299 298 298 297
333 330 329 328 328 329 329 328 327 327 326 325 324 320 314 311 307 302 300 299 298 298 298 298 298 298 298 297 297 297 297 298 298 297 297 298 298 299 298 297 297 297 297 297 297 297 297 297 297 296 296 296 296 297 297 298 298 298 298 298 298 298 298 298 298 298 298 298 299 299 299 299 299 298 298 299 299 298 299 299 299 299 299 298 298
332 330 329 329 328 328 329 328 327 327 326 325 324 318 312 307 304 301 299 299 298 298 298 298 298 298 298 297 297 297 298 298 298 297 298 299 298 297 297 296 296 297 296 297 297 297 297 297 296 296 296 296 297 297 297 298 298 298 298 298 298 298 298 298 298 298 298 299 299 299 299 299 299 299 298 298 299 299 299 299 299 299 299 299 298
332 330 329 330 329 329 329 328 327 327 326 325 322 316 309 305 302 300 299 298 298 298 298 298 298 298 298 298 298 298 298 298 298 298 298 298 297 296 296 296 296 296 296 296 296 296 296 296 297 296 296 296 297 297 297 298 298 298 298 298 298 298 298 299 298 299 299 299 299 299 299 299 299 299 299 298 299 299 298 299 299 299 299 299 298
332 330 330 331 329 329 328 328 328 327 325 325 321 314 308 304 301 299 299 298 298 298 298 298 298 298 298 298 298 298 298 298 299 298 298 297 296 296 296 296 296 296 296 296 296 296 296 297 297 296 296 296 297 297 297 298 298 298 298 298 298 298 298 299 299 299 299 299 299 299 299 299 299 299 299 298 298 298 298 298 299 299 299 298 298
333 331 330 331 329 328 328 327 327 327 325 324 321 313 306 303 301 299 299 298 298 298 298 298 298 298 298 298 298 298 298 298 298 298 297 297 296 296 296 296 296 296 296 296 296 296 296 297 297 297 296 296 297 297 298 298 298 298 298 298 298 298 298 299 299 299 299 299 299 299 299 299 299 299 299 298 298 298 298 298 298 299 299 298 298
332 331 331 331 329 327 327 327 327 327 325 324 320 313 306 303 300 299 299 298 298 298 298 298 298 298 298 299 298 298 298 298 298 298 297 296 296 296 296 296 296 296 296 296 296 295 296 297 298 297 296 296 297 297 298 298 298 298 298 298 298 298 298 298 299 299 299 299 299 299 299 299 299 298 298 298 298 298 298 297 298 299 299 298 298
331 331 332 331 329 327 327 327 328 327 325 324 320 313 306 302 300 299 299 299 299 299 299 298 298 298 299 299 298 297 298 298 298 298 297 296 296 296 295 295 296 296 296 296 295 295 296 298 298 297 296 296 296 297 298 298 298 299 298 298 298 298 298 298 299 299 299 299 299 299 299 299 298 298 298 298 298 298 298 297 297 298 299 299 298
332 332 332 331 329 327 328 328 327 326 325 324 320 312 305 302 300 300 299 299 299 299 299 299 298 299 299 298 297 298 299 299 298 297 296 296 296 295 295 295 295 295 295 295 295 295 296 298 298 297 295 295 296 297 298 298 298 299 298 298 298 298 298 298 298 299 299 299 299 299 299 299 298 298 298 298 298 297 297 297 297 297 298 299 299
333 333 332 330 329 329 328 327 327 326 325 324 320 312 305 302 301 300 300 300 300 299 299 299 298 298 298 298 298 298 299 298 298 296 296 296 296 295 295 295 295 295 295 295 295 295 296 297 297 296 295 295 295 297 298 298 298 299 299 298 298 298 298 298 298 298 299 299 299 299 299 298 298 298 298 298 298 297 297 297 297 297 298 299 299
333 332 331 329 329 330 329 327 327 326 325 323 319 312 305 302 302 301 301 301 300 300 299 299 299 298 298 298 298 298 298 298 297 296 295 295 295 295 294 294 295 295 295 295 295 295 295 296 296 296 295 294 295 296 298 298 298 299 299 298 298 298 298 298 298 298 299 299 299 298 298 298 298 298 298 298 297 297 297 297 297 297 298 299 299
Wind_Speed
10 9 9 8 7 7 8 8 8 8 9 9 9 9 9 10 10 10 10 8 7 6 5 6 5 4 4 5 4 3 3 4 5 6 7 8 9 9 9 9 10 11 11 10 10 10 11 12 12 12 11 12 12 12 12 13 13 13 13 13 14 14 14 14 14 15 15 16 17 17 18 17 17 18 18 17 18 18 18 18 17 17 17 17 17
11 10 10 9 8 7 7 7 8 8 9 9 9 9 9 9 9 9 9 8 7 6 5 5 5 5 5 5 4 3 2 4 5 5 6 8 10 10 10 10 11 10 9 9 9 10 11 10 11 11 11 12 12 12 12 12 13 13 12 13 14 15 16 16 16 18 19 19 20 20 19 18 19 19 18 19 20 20 20 18 18 18 19 19 19
12 11 10 9 9 9 8 8 8 9 9 10 9 9 9 9 9 9 9 8 8 7 5 5 6 6 6 5 5 3 3 5 5 5 6 9 10 11 11 11 11 9 8 8 9 9 10 9 9 10 11 11 12 12 12 12 12 12 13 14 15 17 18 18 18 20 21 20 21 21 19 19 20 19 19 21 20 20 19 19 19 20 20 19 20
12 12 10 9 9 9 9 9 9 10 10 10 10 9 10 10 10 9 9 9 9 7 6 6 6 6 6 6 5 4 4 5 5 5 7 9 11 11 11 11 9 8 8 8 8 9 9 9 9 10 11 11 11 11 12 12 12 13 14 16 17 18 19 19 18 19 21 21 22 22 20 20 19 18 19 20 19 19 20 19 20 20 20 20 20
13 12 11 10 9 10 10 10 10 10 11 11 10 10 10 11 10 10 10 10 9 7 6 6 6 6 6 6 5 4 5 6 6 7 8 10 11 11 11 10 8 7 8 8 8 9 9 9 9 9 10 10 10 10 11 11 13 14 15 17 17 18 18 19 18 19 20 21 21 22 21 21 19 19 19 19 21 21 21 20 21 22 22 22 21
14 13 12 10 9 9 10 10 11 11 12 12 11 11 11 11 11 10 10 10 9 7 6 6 6 6 7 6 5 6 6 6 6 7 9 10 11 11 10 9 8 7 7 8 9 9 9 8 8 8 9 9 9 10 11 12 13 14 15 16 17 17 17 18 19 19 21 21 21 21 21 21 21 20 18 20 23 23 22 22 21 22 23 23 21
14 13 12 10 8 8 9 11 12 12 12 12 12 12 11 11 11 10 10 10 10 8 6 6 6 6 6 6 6 6 6 6 6 7 9 10 10 10 9 8 7 7 7 8 8 8 8 7 7 8 8 9 9 10 12 13 14 14 15 15 16 17 17 18 19 19 20 21 21 21 20 21 20 19 18 21 24 23 22 22 21 21 23 22 21
14 12 10 9 8 8 9 10 12 13 13 13 13 12 12 12 11 10 10 10 10 9 7 6 7 7 7 6 6 6 5 5 6 7 8 9 9 8 7 6 6 7 7 8 8 8 7 7 7 7 8 8 9 10 11 12 13 14 15 16 17 18 18 19 19 19 20 21 22 20 19 20 20 18 18 22 24 22 22 22 21 21 21 21 21
13 11 10 9 9 9 10 10 11 12 13 14 13 12 12 12 12 12 11 11 11 9 7 7 8 8 8 7 6 5 5 5 5 6 8 8 8 7 6 6 6 7 7 7 7 7 7 6 6 7 8 8 9 10 11 11 12 13 15 16 17 18 19 19 19 19 19 20 21 21 20 21 21 18 17 22 23 21 22 22 21 21 20 21 21
12 11 10 10 10 10 11 11 11 12 12 14 13 12 12 12 12 12 12 12 11 9 8 8 9 10 8 7 6 5 5 4 5 7 8 8 7 6 5 6 6 6 6 6 7 7 6 6 6 7 8 8 9 10 10 11 12 13 14 15 17 17 18 18 19 19 20 20 19 21 23 24 23 19 17 21 22 22 23 21 21 21 21 22 23
12 11 11 11 11 10 12 12 11 12 13 13 13 12 12 12 13 13 13 13 10 8 8 9 10 11 9 8 7 5 3 4 5 7 7 6 5 5 5 6 6 6 6 6 7 7 7 7 7 7 8 8 9 9 10 11 12 13 13 15 16 17 17 17 18 19 20 21 18 19 23 24 24 21 18 20 23 24 22 20 21 21 22 24 24
13 13 12 12 11 11 11 11 11 12 13 13 12 12 12 12 13 14 14 14 11 10 10 11 11 11 10 8 6 4 3 4 5 5 5 4 4 5 5 6 6 6 6 7 7 6 7 7 7 7 7 8 8 9 10 11 12 12 13 14 15 16 18 18 18 18 19 20 17 19 23 23 24 22 18 21 25 23 19 20 21 21 23 26 24
14 14 13 13 13 12 11 11 12 13 13 13 12 12 12 13 14 14 14 14 13 13 13 12 13 12 11 8 6 4 4 3 4 4 3 2 3 4 5 7 7 7 7 6 5 5 6 6 6 7 7 8 9 9 10 11 12 13 14 15 16 17 19 19 19 18 18 19 17 19 23 23 24 23 21 24 25 20 20 21 20 22 25 26 26
15 14 14 13 13 13 12 12 12 13 13 13 13 13 13 14 15 15 14 14 13 14 14 14 14 13 10 8 7 7 6 5 5 4 3 2 1 3 5 6 7 6 5 5 4 3 4 5 5 6 7 8 9 10 11 12 13 14 16 17 18 20 21 21 20 19 18 18 17 19 21 22 23 23 23 26 24 21 22 22 21 25 26 26 27
15 15 14 14 13 14 13 13 13 14 14 14 14 13 13 14 15 16 15 15 14 15 15 15 15 13 9 9 9 9 8 8 8 6 5 3 2 1 3 5 6 6 5 4 3 2 2 3 4 5 7 8 10 11 12 13 14 16 18 19 21 22 22 23 22 20 19 18 18 19 20 20 22 23 24 26 25 23 24 23 22 25 27 27 28
16 15 14 14 14 14 14 13 13 14 13 13 13 13 14 15 16 16 16 16 16 16 16 16 16 15 11 10 10 10 10 11 11 9 8 6 4 2 1 3 4 5 4 4 3 1 1 2 3 5 6 8 9 11 13 14 16 18 19 21 22 23 23 24 23 22 20 19 19 20 19 19 22 24 23 24 26 26 25 23 23 25 27 28 28
17 16 15 15 15 15 14 14 14 14 13 13 12 12 13 15 16 17 17 16 15 16 17 17 19 19 16 12 10 10 11 11 10 10 10 9 7 4 1 1 1 3 3 3 2 1 1 1 3 4 6 8 10 11 13 15 18 19 21 22 23 24 24 25 25 24 22 20 20 20 18 19 22 23 21 22 26 26 24 23 23 26 28 28 29
17 17 17 16 16 15 15 14 14 14 13 13 12 12 14 15 16 16 16 16 15 16 17 18 20 21 20 18 15 13 11 9 10 10 10 11 9 7 5 2 1 0 1 1 1 2 3 3 3 5 6 8 10 12 14 16 19 20 21 22 23 24 25 26 26 25 23 22 21 19 18 20 22 22 21 22 25 24 23 23 24 26 27 28 29
18 17 17 17 16 16 15 14 13 14 14 13 12 12 13 15 16 16 16 16 16 16 17 18 20 21 21 20 19 17 14 11 10 9 8 10 10 9 7 5 4 3 2 3 3 4 4 4 4 5 7 9 11 13 15 17 19 20 21 22 24 25 26 26 26 25 24 22 21 19 19 20 21 22 22 23 24 22 21 22 24 26 27 27 28
18 18 18 17 17 16 15 14 13 13 13 13 12 13 14 14 16 16 17 17 17 17 17 17 19 20 21 21 19 18 16 13 11 9 8 8 9 10 9 7 7 6 5 5 5 5 4 4 5 6 7 10 12 14 16 18 19 20 22 23 24 26 27 27 26 25 24 23 21 19 20 21 21 22 23 23 22 21 20 21 23 26 27 27 27
19 19 18 18 17 16 15 13 12 12 13 13 13 14 14 14 15 16 17 17 18 18 17 18 18 19 20 20 19 18 17 15 13 12 10 9 9 9 9 10 10 9 7 7 7 5 5 5 6 7 9 11 13 15 17 18 19 21 22 24 25 26 26 26 26 25 24 23 21 20 20 21 22 22 22 23 21 20 20 21 23 25 26 27 28
20 20 19 18 17 16 15 13 12 12 12 14 14 14 15 14 14 16 17 17 18 18 18 17 17 17 18 18 18 18 17 16 15 14 13 11 10 9 8 10 10 10 10 9 8 7 6 7 9 10 11 12 13 15 17 18 20 22 23 24 25 26 26 26 25 24 23 23 21 21 20 21 21 22 22 22 21 20 20 21 22 24 26 28 28
21 20 20 19 18 17 15 14 13 13 14 14 15 15 16 16 16 16 17 17 17 18 18 18 17 17 18 18 18 18 17 16 16 15 14 13 11 10 9 9 10 10 11 11 10 10 9 10 11 11 12 13 14 16 18 19 21 23 24 25 25 26 26 25 24 23 22 21 21 20 20 20 20 21 22 22 21 21 21 21 23 25 27 29 29
22 22 21 19 19 18 16 15 14 14 15 15 15 16 17 18 17 17 16 17 18 18 18 19 19 19 19 18 17 17 17 16 16 15 15 13 12 12 10 9 13 13 12 13 13 12 12 12 12 12 13 14 15 16 18 20 22 23 24 25 26 26 26 25 23 22 21 20 20 20 20 19 20 22 22 22 22 22 22 23 24 26 28 29 29
22 22 21 20 19 18 17 15 14 15 15 16 17 18 18 18 17 17 16 16 17 18 19 18 18 18 18 18 17 17 16 16 16 16 16 14 13 14 12 11 16 16 14 15 15 13 13 13 12 12 13 14 15 17 19 21 22 23 24 25 26 25 25 24 22 20 19 19 19 19 19 19 20 21 22 22 22 23 23 24 25 27 28 29 30
21 20 20 19 18 18 17 16 15 16 16 17 18 18 17 17 17 16 16 16 17 17 17 17 17 17 17 17 17 16 15 15 15 15 14 14 14 15 14 14 17 17 16 17 16 15 14 13 13 13 14 15 16 18 19 21 22 24 25 25 25 25 24 23 20 19 18 18 18 18 18 19 20 21 22 22 23 24 24 24 25 27 28 30 30
20 19 19 18 18 18 17 17 17 17 17 18 18 17 16 16 16 16 16 16 16 16 16 16 16 15 15 16 15 14 14 13 13 12 12 12 13 15 15 16 19 18 17 17 17 15 15 14 13 14 14 15 16 17 19 21 22 24 25 25 25 24 23 21 18 17 16 17 17 18 18 19 20 20 21 23 23 24 25 25 26 27 29 30 30
19 19 19 18 18 17 18 17 17 17 18 17 17 16 16 16 16 16 16 15 15 16 15 15 15 14 14 14 13 13 12 12 11 10 11 12 14 15 16 17 19 20 19 18 18 17 17 16 14 14 15 15 16 17 19 21 22 23 24 24 24 22 20 18 17 16 15 16 17 17 18 18 19 20 21 23 24 24 25 25 26 27 28 30 30
19 19 19 18 17 17 17 17 17 18 18 17 17 16 16 16 16 15 15 15 15 15 15 15 14 15 14 13 12 12 11 11 10 10 11 12 13 15 16 17 19 20 20 20 20 19 18 17 16 15 15 15 16 18 19 20 22 23 23 23 22 20 18 16 15 14 14 15 15 16 17 17 18 19 20 22 23 24 25 25 26 27 28 30 31
18 19 19 18 17 17 17 17 18 18 17 17 17 16 16 16 16 16 15 15 15 15 15 15 14 14 14 13 12 11 11 10 10 11 11 12 13 14 15 16 17 20 20 19 19 19 19 18 17 16 15 15 16 18 19 20 21 22 22 21 19 17 15 14 13 13 12 13 14 15 15 16 17 19 20 22 22 23 25 25 25 26 28 30 32
19 19 19 19 18 17 17 18 18 18 17 17 17 17 16 16 16 16 16 15 16 16 15 15 15 14 13 12 11 11 10 10 11 11 11 12 12 13 14 15 16 18 18 18 17 17 18 18 18 17 16 16 17 17 18 19 20 20 20 19 17 14 12 11 11 11 11 12 14 14 14 15 16 18 20 21 22 23 25 25 25 26 28 31 33
20 20 19 18 17 17 18 18 18 18 17 17 17 17 17 16 16 17 17 16 16 16 15 15 15 14 13 12 11 11 10 10 11 11 11 11 11 11 12 14 16 17 17 17 16 15 16 17 17 17 16 16 15 15 16 17 18 18 18 16 14 11 9 9 9 9 10 12 13 13 13 14 16 18 19 20 21 23 25 25 26 26 28 31 34
20 20 19 18 17 17 18 19 19 18 17 17 17 18 18 17 17 18 18 17 17 16 15 15 15 14 13 12 11 11 10 10 10 10 10 10 9 10 10 11 14 16 17 17 17 16 16 16 16 16 15 14 13 14 15 16 16 15 14 13 11 9 8 8 8 8 10 11 12 11 12 14 16 18 19 20 21 22 24 25 26 27 29 32 34
21 20 19 18 17 17 18 18 18 18 17 17 17 18 18 18 18 18 18 18 18 17 16 15 14 14 13 12 11 11 11 10 10 9 9 9 8 8 8 9 11 14 17 18 17 17 17 16 15 15 14 12 12 13 13 14 13 11 10 9 8 8 8 7 7 7 9 10 11 11 12 14 16 18 19 20 21 22 24 26 27 27 29 31 34
21 20 19 18 17 17 18 18 18 18 17 17 17 18 19 20 19 19 19 18 17 16 15 14 13 13 12 11 11 11 11 10 9 9 8 8 7 6 6 7 8 11 14 16 16 15 16 15 14 12 11 10 11 11 12 12 11 9 8 8 7 7 7 7 6 6 8 10 11 11 12 14 16 18 19 20 21 23 24 26 27 28 30 32 34
21 21 20 19 18 18 17 18 18 18 17 17 18 19 19 20 19 19 18 18 17 16 14 13 12 12 11 11 11 11 10 9 9 8 8 7 7 6 6 6 7 9 11 13 13 12 11 11 10 10 9 9 10 10 9 10 9 8 7 7 6 6 6 6 7 7 8 9 10 11 13 14 16 17 19 20 22 23 24 26 28 29 30 32 34
22 22 21 20 20 19 18 18 18 17 17 17 17 17 17 17 18 18 18 18 17 15 14 13 12 11 11 10 10 10 9 9 8 8 7 6 6 6 6 6 7 8 10 11 10 9 8 8 8 8 8 8 9 8 7 6 6 5 5 5 5 4 3 4 7 8 9 8 9 12 14 14 15 17 18 20 22 23 24 26 28 29 30 32 34
23 24 23 21 20 19 18 18 18 17 17 16 15 14 14 15 17 18 18 18 16 14 13 13 12 12 11 10 9 9 8 8 7 6 6 5 5 5 6 7 7 8 9 9 9 8 8 7 7 7 7 8 8 7 6 4 4 3 3 3 2 2 3 5 8 9 8 7 8 12 14 14 15 16 18 20 22 23 25 27 29 30 31 32 34
25 25 25 23 20 19 18 18 18 18 17 15 14 13 14 15 16 18 18 17 16 15 13 13 12 12 11 10 9 9 8 7 7 6 5 4 4 4 5 8 9 9 9 9 8 8 8 7 7 7 7 7 7 6 5 3 2 2 3 3 3 4 5 7 9 9 10 8 8 12 14 14 15 16 18 20 22 24 26 28 30 31 31 32 34
25 25 25 22 21 20 19 18 19 18 17 15 14 13 14 15 17 18 17 17 16 15 14 13 13 12 12 11 10 9 9 8 8 7 6 5 5 5 7 9 10 10 10 9 9 9 8 7 7 7 6 6 5 5 4 3 2 2 5 7 7 7 9 9 10 11 12 11 11 13 15 15 15 16 18 20 22 24 26 28 29 31 31 31 33
25 24 23 21 21 21 20 19 19 19 18 15 14 14 14 15 17 17 17 17 16 16 15 14 14 14 13 12 11 11 11 10 10 9 9 10 9 10 11 12 12 11 10 10 10 9 8 7 6 6 6 5 5 4 3 3 2 2 5 8 8 8 10 10 9 12 15 15 13 14 16 18 18 17 17 19 22 24 25 27 29 30 31 31 33
24 24 23 22 21 21 20 20 20 19 18 15 14 14 14 15 17 18 18 17 16 16 16 15 15 15 14 14 13 13 12 11 11 11 12 11 12 12 12 12 12 12 11 11 10 9 8 7 6 6 6 5 4 3 3 2 0 2 5 8 8 9 10 10 9 12 16 17 16 15 17 20 21 19 18 19 22 24 25 26 28 29 30 31 32
25 24 23 23 22 22 21 21 20 19 17 15 14 14 15 17 18 18 17 17 17 17 17 16 16 16 15 14 13 12 11 12 12 12 13 13 13 13 13 13 13 12 11 10 10 9 8 7 7 6 6 5 4 3 3 2 0 3 5 8 8 9 11 13 13 14 16 18 18 17 17 20 22 21 20 20 22 24 25 26 27 29 30 31 32
25 23 22 23 22 22 21 20 20 19 17 15 14 15 17 18 18 18 17 17 17 17 17 17 16 15 14 14 13 12 12 13 13 13 14 14 14 14 14 14 14 13 13 11 10 10 9 8 7 7 6 5 4 3 3 3 2 2 5 7 8 8 10 12 14 15 16 17 18 17 18 20 22 22 22 22 23 25 26 27 28 29 30 30 31
26 23 23 23 21 21 22 20 20 18 16 15 15 15 18 19 19 19 18 17 17 16 16 16 16 15 14 14 14 14 14 14 14 15 16 15 15 16 16 16 16 15 15 13 11 10 10 9 8 7 6 5 4 4 4 3 3 3 5 5 6 7 8 10 13 13 14 16 18 18 18 20 22 23 24 24 24 25 27 29 29 29 30 29 30
29 26 25 24 22 22 22 20 19 18 17 15 15 16 19 20 20 19 18 17 17 17 16 16 16 15 14 14 14 14 15 16 16 16 16 16 16 17 17 17 17 16 15 14 12 11 10 9 9 7 5 5 5 5 5 4 4 4 5 5 5 5 6 8 11 12 13 16 18 19 19 20 22 23 24 25 26 26 28 30 30 30 29 28 29
30 30 27 26 23 22 22 20 19 19 17 16 16 17 19 21 21 20 19 18 18 18 17 16 15 15 15 15 15 15 16 17 16 16 16 16 17 18 18 18 17 17 16 14 13 11 10 9 8 7 6 6 6 7 7 6 5 5 6 5 5 5 6 7 10 11 12 15 17 19 19 20 22 23 24 25 26 27 29 31 31 30 29 27 28
31 32 30 25 21 21 21 21 20 20 18 16 16 18 20 21 21 21 20 19 19 18 18 16 16 16 17 17 16 16 16 17 16 16 16 16 17 19 19 18 18 17 16 15 14 12 10 9 9 9 8 7 8 8 8 8 6 6 7 6 6 6 6 7 9 10 11 13 15 18 19 20 21 23 24 25 26 27 29 31 32 31 30 27 27
32 35 32 24 19 20 21 21 20 20 19 17 16 19 21 22 22 22 21 20 19 18 18 17 18 18 17 17 17 16 16 16 16 16 17 17 18 19 20 19 18 18 17 16 14 13 11 10 10 9 8 8 9 9 10 9 7 7 7 6 7 7 7 8 10 11 11 12 14 16 18 19 21 23 25 26 26 26 29 31 32 32 31 28 27
33 35 31 23 20 22 22 21 20 20 18 16 17 19 22 22 22 22 20 20 19 19 18 19 19 18 17 17 17 16 16 15 16 17 17 17 18 19 20 19 19 18 17 16 15 13 12 12 11 10 9 9 9 10 11 10 9 8 8 8 8 8 8 9 11 12 11 11 13 16 17 17 19 23 25 27 27 27 29 31 33 33 31 29 27
34 32 27 23 24 27 25 21 20 20 17 15 17 20 21 22 21 21 20 20 19 19 19 20 20 18 17 17 17 17 16 16 17 18 17 17 18 19 19 19 19 19 17 16 15 14 14 14 13 11 10 9 10 10 11 11 10 9 9 9 9 9 9 9 11 13 12 12 13 16 17 18 19 21 25 28 30 30 30 31 32 32 32 30 28
Wind_Direction
196 200 205 207 210 217 219 213 207 203 200 200 200 199 198 195 193 200 213 222 231 236 237 243 244 235 232 241 258 279 317 1 2 5 16 13 5 358 352 347 341 339 338 341 347 353 358 0 3 9 11 11 11 12 13 12 14 18 18 17 18 22 23 19 19 27 27 19 17 19 17 13 14 14 12 12 7 2 1 359 360 360 358 355 350
194 200 205 207 208 214 218 211 205 198 195 198 201 202 201 201 204 210 221 227 231 231 234 245 243 234 234 242 259 276 319 346 348 3 11 0 354 353 351 348 346 346 349 355 359 0 5 5 4 8 13 13 11 13 15 16 16 17 20 20 19 23 27 21 19 24 24 20 19 18 18 17 15 15 13 9 4 3 3 4 5 2 359 358 355
197 204 207 208 209 213 214 209 204 200 201 206 209 210 209 212 217 219 224 228 228 229 236 247 247 242 238 244 259 271 308 326 338 356 355 350 349 349 350 351 352 355 360 4 4 4 8 8 9 11 15 14 13 16 15 17 18 18 21 22 22 23 26 24 19 20 22 21 18 18 20 18 16 17 12 9 9 10 8 8 7 3 1 0 357
204 210 212 211 213 216 216 210 209 210 211 215 217 215 214 219 222 221 224 225 223 228 237 243 245 246 241 245 255 269 301 316 332 341 342 344 346 347 351 355 359 3 6 9 8 10 14 15 15 14 15 16 14 16 15 16 19 21 22 22 24 23 22 24 19 17 20 19 16 17 18 16 18 17 11 12 13 9 7 7 4 1 0 358 356
208 214 215 215 219 221 221 218 218 220 218 219 220 220 219 221 223 220 222 225 225 231 237 235 237 240 240 242 252 273 297 312 324 331 336 339 340 344 352 360 4 9 12 12 13 16 19 21 21 16 16 17 15 16 17 18 20 23 24 22 23 22 20 21 17 13 15 16 15 15 14 14 14 13 10 9 5 2 2 3 0 358 357 357 357
209 214 215 218 221 222 224 223 224 225 222 220 222 225 223 223 224 221 223 228 229 231 233 233 235 236 236 239 254 276 291 304 317 325 332 335 337 345 356 4 6 11 16 17 18 19 20 22 23 19 17 17 16 18 20 22 23 21 23 23 21 20 18 17 15 11 9 10 11 10 11 11 11 11 5 1 1 360 359 1 360 357 357 358 357
213 218 220 221 224 223 226 227 226 226 223 223 224 226 225 222 222 221 224 227 228 227 224 229 236 235 235 242 258 273 286 298 311 321 328 331 336 349 2 4 3 13 21 23 22 20 23 23 21 18 16 18 20 23 24 24 23 20 19 20 18 17 15 13 11 10 7 3 3 4 7 7 9 10 1 354 358 358 358 1 0 357 358 358 357
217 222 227 229 229 228 231 230 225 222 222 225 227 226 224 222 222 222 224 228 229 227 220 222 230 232 235 243 254 268 281 289 306 320 325 331 341 356 6 3 5 18 27 28 26 23 26 22 18 17 17 22 24 27 27 25 23 21 18 16 15 13 10 9 6 4 3 359 357 357 1 3 6 11 0 351 356 360 360 1 0 358 359 357 355
219 227 233 236 235 234 236 233 224 220 220 224 225 224 222 221 223 223 224 229 233 230 220 216 222 230 234 236 244 257 270 285 308 319 325 334 347 359 3 5 12 22 28 29 29 27 25 21 17 17 19 25 26 26 25 24 22 20 19 14 12 10 6 4 360 358 357 356 354 350 354 359 5 14 0 351 358 1 358 359 359 358 357 353 350
223 232 237 240 241 240 237 232 225 221 219 222 221 220 220 219 223 225 227 232 236 233 226 222 223 228 228 223 230 245 261 293 317 324 332 340 350 360 3 7 16 24 27 29 30 29 26 24 21 17 19 22 22 23 20 19 19 17 17 13 9 5 1 357 353 353 351 356 357 348 349 355 2 10 358 351 355 355 356 358 358 358 354 350 348
226 235 239 240 243 245 239 231 227 222 219 220 220 220 221 218 218 223 228 231 232 232 232 228 221 219 220 217 219 236 267 305 317 323 334 344 359 8 7 14 24 30 29 30 28 25 26 25 21 16 17 18 18 17 15 13 13 13 12 9 4 358 355 352 351 353 350 355 359 347 346 352 357 5 359 348 348 354 360 358 357 356 350 349 351
229 237 240 240 243 248 241 233 230 224 221 223 224 226 227 222 218 221 227 226 219 221 229 230 221 211 209 214 217 228 261 292 303 315 331 351 14 22 26 33 37 35 30 28 23 22 25 23 19 16 15 16 15 12 10 7 5 4 3 1 358 352 350 350 351 354 351 354 357 343 344 348 351 359 356 344 348 355 358 357 357 351 347 353 357
233 239 242 241 243 247 244 237 232 226 224 226 229 230 229 224 221 221 226 227 219 217 222 226 224 215 205 202 210 225 243 265 282 293 319 356 25 37 44 44 40 39 32 19 15 20 23 20 19 21 18 15 12 8 4 1 357 355 354 353 351 349 348 348 348 351 349 351 351 342 343 346 347 354 349 343 351 354 351 358 354 344 349 357 359
236 240 241 242 243 245 246 241 234 228 225 226 227 228 225 222 222 221 221 226 228 225 224 224 223 223 221 211 206 214 224 232 250 264 276 305 6 35 46 44 36 37 34 17 14 19 23 23 22 21 20 15 9 4 357 352 349 347 348 348 348 348 347 346 346 348 348 348 348 343 343 345 346 350 346 344 350 347 345 352 346 342 351 355 358
238 240 239 241 244 244 245 242 234 229 227 226 225 224 222 222 225 226 221 220 225 229 229 229 225 222 223 222 219 218 218 221 230 239 247 258 284 353 39 41 30 27 25 18 28 52 37 26 22 21 20 15 7 1 355 348 345 345 346 345 345 345 344 343 344 346 348 347 346 343 342 345 345 345 344 343 343 341 343 346 342 346 352 352 356
239 240 239 240 244 244 243 239 233 230 229 228 227 225 223 222 223 228 228 223 224 228 231 234 234 231 225 224 225 220 223 229 227 228 236 248 262 281 18 40 28 21 17 21 47 93 65 11 9 15 12 7 0 355 350 345 345 346 346 344 342 340 340 340 342 345 347 346 343 342 341 342 341 341 343 341 338 340 344 345 343 347 350 351 352
241 242 240 239 243 245 242 236 231 230 229 229 231 231 229 227 227 230 235 236 237 238 239 238 238 239 237 234 227 223 237 242 225 223 234 242 253 257 252 52 37 23 17 33 64 126 269 313 337 354 357 353 349 346 343 342 345 347 345 343 339 336 337 339 341 343 345 344 342 341 340 337 337 341 344 339 336 340 344 345 345 347 349 348 347
241 243 240 240 243 245 242 235 230 229 230 230 232 233 232 231 233 237 241 247 249 247 246 243 238 236 238 239 241 245 253 245 219 219 232 236 242 242 235 226 215 202 91 107 149 244 266 280 313 337 340 339 338 338 340 342 345 344 342 339 335 334 336 337 339 340 341 342 341 340 338 335 336 340 341 335 335 340 343 345 346 346 346 344 343
242 243 241 242 243 245 242 234 229 229 230 233 234 238 239 237 239 242 245 248 250 250 250 245 239 237 238 240 244 248 253 248 234 230 230 229 233 234 233 223 209 208 184 180 218 248 261 275 306 326 325 325 330 335 339 342 343 340 338 335 333 333 335 335 336 337 338 340 340 339 337 336 337 339 337 334 337 341 343 344 345 344 343 342 340
242 243 243 245 246 244 240 234 231 231 232 237 239 242 243 241 242 244 246 248 251 255 255 250 246 243 241 241 243 246 249 253 252 250 243 232 230 230 230 220 206 208 208 204 221 243 256 275 300 307 307 314 324 332 337 339 337 335 334 332 331 332 333 334 335 335 337 339 339 338 337 338 339 338 336 336 339 341 342 343 343 342 341 340 339
243 244 245 246 246 242 238 236 234 232 234 238 242 244 243 244 248 250 252 255 258 259 257 254 251 248 245 245 246 247 249 253 253 251 249 244 239 235 233 225 212 207 211 212 217 233 251 268 285 291 296 307 319 328 332 333 332 331 330 330 330 331 331 333 334 336 337 338 339 339 340 340 340 337 335 337 339 340 342 343 343 343 342 340 339
244 245 245 245 243 240 237 236 235 233 234 238 244 249 249 251 256 258 259 260 259 259 258 256 252 247 247 249 250 250 252 255 256 253 251 251 250 247 244 235 220 208 208 209 212 224 242 258 272 283 290 301 313 322 326 326 327 327 327 327 328 329 331 333 335 336 337 337 338 341 342 341 338 336 335 338 342 344 344 346 346 345 343 343 342
244 245 246 243 241 239 236 234 234 234 236 240 245 250 253 255 258 259 260 259 258 258 257 256 250 244 244 247 250 254 258 262 264 262 259 258 258 256 253 235 215 209 210 207 209 222 238 251 264 276 284 294 306 315 319 321 323 324 325 326 327 329 332 334 335 337 338 338 339 341 342 340 337 335 337 342 346 347 347 349 349 348 347 347 345
242 243 243 241 240 240 238 235 234 237 240 243 245 249 253 257 260 261 259 258 258 257 257 255 250 246 247 250 256 261 264 266 268 267 262 262 263 259 256 231 207 207 210 206 209 222 239 251 258 268 278 288 300 309 314 318 320 321 323 325 327 330 333 335 337 338 338 339 340 341 340 338 337 336 339 345 347 347 349 350 350 350 350 349 347
242 243 242 241 241 242 243 241 240 242 244 247 249 253 256 259 262 262 258 256 256 256 257 256 252 251 253 257 262 264 265 267 267 266 260 256 252 248 247 229 210 209 208 207 215 224 234 245 252 260 272 283 296 305 311 315 317 320 323 326 328 331 334 336 338 339 340 341 341 340 339 338 337 337 340 345 346 346 348 350 350 350 350 350 349
246 247 246 245 245 246 246 245 245 246 247 250 254 257 260 263 264 264 260 256 254 254 254 253 251 252 255 259 261 261 263 265 264 261 254 245 241 241 239 222 208 210 211 211 219 226 229 237 246 256 268 280 293 302 309 313 316 320 323 326 328 331 335 337 339 341 342 341 339 338 339 339 338 338 340 343 344 346 348 348 348 349 350 350 350
250 251 249 247 248 248 247 246 245 248 250 253 256 259 262 266 268 267 262 257 254 252 251 250 251 253 256 258 258 259 260 259 256 252 245 240 238 241 239 224 208 206 214 218 221 226 231 238 245 256 268 280 293 301 308 312 316 320 323 326 328 332 335 338 340 344 344 340 338 338 339 339 338 339 340 341 343 346 348 348 348 350 351 351 351
249 250 249 247 248 247 246 246 247 250 254 256 258 261 265 269 271 267 261 257 254 251 249 248 252 255 257 257 256 254 253 250 247 245 243 242 241 241 241 236 223 212 212 218 221 224 230 238 247 258 269 280 292 300 307 312 316 320 323 325 328 332 336 339 342 345 342 339 338 337 338 338 339 341 340 341 344 348 349 349 350 351 352 353 352
247 249 248 248 247 244 243 244 246 251 254 257 260 263 266 270 270 262 256 254 251 250 248 249 253 256 256 255 252 248 246 245 245 246 246 246 247 246 244 243 239 230 222 220 222 225 230 238 247 257 268 279 290 298 305 311 316 320 322 323 328 334 338 341 344 344 341 340 337 336 338 339 342 343 341 342 347 350 351 351 351 352 353 355 355
243 246 247 248 246 242 241 242 246 250 254 257 260 261 265 270 266 256 250 250 249 249 249 251 255 257 255 253 249 247 246 246 247 247 248 248 248 249 247 244 241 240 241 237 230 228 231 239 247 256 266 277 288 296 304 311 316 319 320 324 330 338 341 343 344 343 343 341 337 337 341 343 345 343 341 344 349 353 354 354 353 353 355 357 358
239 242 244 246 245 241 240 241 245 250 254 257 259 260 263 267 262 251 247 249 250 249 250 253 257 258 257 253 249 250 249 248 248 246 245 244 243 243 243 240 237 239 247 249 240 232 235 241 247 254 263 274 285 295 305 312 316 319 321 327 336 343 345 345 344 345 347 343 338 341 345 346 345 342 341 345 351 354 355 355 354 354 357 358 359
237 239 241 244 244 241 240 242 245 250 255 258 260 259 261 264 259 250 247 249 250 251 251 253 255 255 253 251 249 249 246 245 246 244 241 241 241 241 237 234 234 236 240 244 246 242 240 242 246 252 262 273 284 297 307 313 317 320 324 331 341 347 347 346 346 347 348 345 343 346 350 348 345 342 342 345 351 355 356 356 355 356 358 360 1
238 239 240 242 243 241 240 242 245 251 257 259 259 258 258 261 258 250 247 248 248 249 249 250 250 248 247 246 244 243 242 242 242 241 242 243 242 241 238 232 231 232 234 238 245 244 241 242 246 252 263 274 287 301 308 313 318 322 327 333 340 342 342 343 345 346 348 348 348 351 354 351 347 343 343 346 351 354 355 356 356 357 358 0 1
238 239 239 241 243 241 239 241 245 251 256 256 255 256 256 257 256 249 246 246 246 247 246 245 243 240 240 240 240 241 241 241 241 240 242 246 246 242 238 233 227 227 231 235 240 243 243 245 248 254 265 276 289 299 306 312 318 323 327 330 330 329 332 338 343 346 348 349 349 353 357 355 350 345 343 347 351 353 354 355 357 358 359 0 2
238 238 238 241 241 240 239 240 245 250 253 253 254 256 256 255 252 247 244 244 245 245 244 241 239 236 235 235 239 244 244 242 243 244 244 246 250 247 239 230 221 218 226 232 235 240 244 245 249 255 265 276 288 297 306 314 319 321 321 322 323 322 325 333 339 346 349 347 346 351 357 354 348 344 344 349 353 353 354 355 357 358 359 0 2
238 238 238 240 238 237 238 240 244 246 248 252 256 257 255 252 248 244 241 242 242 242 239 235 234 234 234 236 241 247 247 245 245 246 248 249 250 248 236 225 216 212 218 224 226 232 240 243 248 255 264 277 289 299 312 316 314 314 314 313 315 315 319 329 336 344 349 346 343 349 355 351 345 345 347 351 355 355 355 356 358 358 359 0 1
239 239 238 238 236 235 237 240 242 243 246 252 255 255 253 249 244 239 236 236 236 235 232 228 228 230 232 237 243 247 247 246 246 248 251 252 251 248 236 226 218 210 211 217 220 225 236 242 247 256 267 279 292 302 310 306 295 299 313 315 316 321 334 343 344 348 353 351 343 348 356 353 348 350 353 355 358 359 359 359 360 359 359 360 1
240 242 240 236 234 235 238 240 239 240 246 252 255 257 252 245 238 232 229 229 228 226 225 223 222 224 228 233 238 241 241 240 245 252 257 257 253 248 238 230 226 218 216 221 226 230 237 243 249 258 270 282 295 301 300 286 262 270 309 322 324 355 3 350 350 1 12 9 354 355 1 1 356 355 357 360 3 5 4 2 1 359 358 359 360
239 245 244 237 232 234 237 239 238 241 247 254 261 261 251 239 231 226 225 225 222 218 217 218 220 220 222 226 229 230 229 232 238 246 256 262 261 256 245 235 230 227 227 228 231 235 238 244 252 263 275 284 291 293 291 281 260 303 350 7 17 21 12 358 357 15 32 28 6 4 8 6 0 357 359 4 7 7 5 2 360 358 357 357 358
237 245 247 238 232 233 235 235 236 241 248 256 264 262 248 233 224 222 221 222 219 214 211 214 217 217 215 218 222 221 220 225 228 231 237 233 227 240 246 239 232 231 234 235 235 237 242 249 259 270 278 283 283 280 274 258 256 337 11 20 18 14 14 11 4 14 30 30 15 9 9 7 2 357 0 7 8 4 2 360 358 356 355 355 356
235 244 245 239 234 232 232 231 234 241 248 258 266 263 246 228 220 219 218 218 216 212 210 213 215 215 213 214 217 215 216 220 224 228 231 226 223 231 235 232 233 237 237 238 240 243 249 255 264 274 278 279 278 270 250 233 245 334 5 12 12 8 8 12 11 12 20 25 21 12 8 9 9 3 2 5 4 360 357 357 357 356 354 354 354
234 241 240 240 237 229 227 230 234 241 249 259 268 261 240 223 219 219 218 215 214 211 211 213 215 215 213 214 215 215 217 225 229 232 234 234 234 232 221 217 230 242 241 242 246 249 254 261 268 277 280 278 271 257 237 224 244 10 358 357 4 6 2 6 13 13 12 15 18 14 8 8 12 10 4 1 359 357 356 356 356 356 354 353 354
236 239 236 241 238 224 223 230 234 240 249 259 266 255 232 219 217 219 218 215 213 212 212 213 216 217 215 216 220 222 226 228 229 229 233 235 234 226 214 211 221 233 239 245 250 252 256 262 269 278 282 278 266 250 227 215 207 12 354 350 359 6 5 5 6 7 6 6 9 12 9 7 12 13 9 3 0 0 359 357 356 356 354 353 355
234 234 234 241 237 222 222 231 236 241 249 257 261 248 228 218 217 218 218 216 214 213 213 214 216 218 218 220 222 224 225 224 224 228 230 231 229 221 215 215 216 220 229 238 245 251 258 262 270 279 282 274 264 253 235 221 233 334 346 350 356 1 7 8 4 1 1 360 1 6 7 6 8 12 11 7 4 3 2 0 359 358 356 355 357
230 230 232 237 234 223 221 231 239 243 249 255 254 241 225 218 218 218 216 215 215 214 213 215 217 218 218 219 218 218 218 220 225 228 229 228 226 220 215 217 218 221 228 234 240 248 257 265 273 279 277 269 259 254 256 245 246 304 334 348 354 354 2 8 4 358 357 357 357 0 4 3 3 6 7 5 3 1 1 2 2 360 358 357 0
226 226 230 230 229 225 223 230 240 243 248 253 248 234 222 218 218 217 215 214 213 212 214 215 215 217 217 216 216 217 218 222 227 230 230 228 225 221 218 219 221 225 230 236 241 247 257 266 272 275 270 265 255 252 262 262 258 293 319 336 347 345 351 3 3 357 356 357 356 356 358 359 359 1 3 2 1 359 359 360 2 1 359 359 3
226 225 226 227 227 226 224 229 238 241 245 250 244 230 221 218 217 216 214 213 211 212 214 215 215 216 215 214 216 219 222 224 228 230 231 230 225 221 220 221 223 227 232 236 240 247 256 260 262 264 265 260 252 250 260 264 263 285 303 318 333 330 334 350 357 358 358 357 356 354 354 356 356 356 358 359 358 357 357 358 359 0 359 358 1
228 225 222 224 227 225 223 228 236 239 242 246 240 228 219 218 217 215 213 212 212 213 214 214 215 216 216 216 217 220 222 224 226 229 231 229 225 221 221 221 224 228 232 236 240 245 249 248 248 256 263 262 253 248 254 258 261 276 289 302 317 316 319 333 345 355 359 357 355 353 351 353 354 351 353 356 356 356 356 356 356 358 358 358 359
229 226 219 218 224 224 224 228 234 237 240 242 238 226 218 216 215 213 212 212 212 214 215 215 217 221 222 220 217 218 223 226 228 229 228 226 223 222 221 221 224 229 232 236 240 245 245 242 244 253 261 264 256 247 249 253 257 269 277 288 305 309 313 322 332 343 351 353 355 354 352 352 351 348 348 350 353 356 357 355 354 355 357 358 358
234 227 220 219 226 227 226 229 233 235 239 243 238 226 217 215 215 213 213 212 212 213 214 216 220 225 227 224 219 219 224 228 230 230 228 225 223 223 223 222 225 229 233 236 241 245 244 243 246 251 257 264 258 247 245 249 254 264 272 280 296 306 310 317 324 330 337 345 351 353 353 352 351 350 347 346 348 354 357 355 352 352 354 357 358
232 225 223 224 226 225 224 228 232 233 235 238 235 226 218 214 213 214 214 214 213 213 214 216 220 224 226 224 223 224 227 230 230 229 227 225 223 223 225 226 227 230 234 238 242 244 244 245 249 252 255 262 260 248 243 246 252 260 268 276 287 296 300 307 317 323 327 335 343 349 352 351 351 353 352 349 348 349 352 354 352 350 353 356 358